Regional Weather Roundup
Issued by NWS Bismarck, ND

Home | Current Version | Previous Version | Text Only | Print | Product List | Glossary On
Versions: 1 2 3 4 5 6 7 8 9 10 11 12 13 14 15 16 17 18 19 20 21 22 23 24 25 26 27 28 29 30 31 32 33 34 35 36 37 38 39 40 41 42 43 44 45 46 47 48 49 50
000
ASUS43 KBIS 202210
RWRBIS

NWR BROADCAST TEXT
NATIONAL WEATHER SERVICE BISMARCK ND
500 PM CDT SAT SEP 20 2014

NOTE: "FAIR" INDICATES FEW OR NO CLOUDS BELOW 12,000 FEET WITH NO
SIGNIFICANT WEATHER AND/OR OBSTRUCTIONS TO VISIBILITY.


CITY           SKY/WX    TMP DP  RH WIND       PRES   REMARKS
WILLISTON      SUNNY     72  35  25 NW22G37   30.07S
MINOT          SUNNY     70  37  29 W25G43    29.95S
MINOT AFB      SUNNY     70  38  30 NW30G43   29.93R
BISMARCK       MOSUNNY   73  37  27 NW23G38   30.00S
DICKINSON      SUNNY     71  37  28 NW21G31   30.07R
GARRISON         N/A     71  36  27 NW26G35   29.99R
HETTINGER ARPT SUNNY     73  33  23 NW25G33   30.10R
JAMESTOWN      PTSUNNY   69  46  43 NW22G31   29.89F
BEACH            N/A     68  34  28 NW26G35   30.14R
CARRINGTON     FAIR      70  43  37 NW22G36   29.90S
CROSBY         FAIR      68  36  30 NW28G38   30.04R
HARVEY         FAIR      68  41  37 NW28G36   29.91S
HAZEN          FAIR      70  37  30 NW26      30.02S
LINTON         FAIR      72  41  33 NW23G35   29.99S
MANDAN         FAIR      70  36  28 NW23G39   30.02R
OAKES            N/A     68  48  49 NW22G37   29.91R
RUGBY          FAIR      68  45  42 NW24G37   29.89S
STANLEY        FAIR      68  34  28 NW24G37   30.02R
TIOGA          FAIR      68  34  28 NW33G40   30.07R
WATFORD CITY   FAIR      70  32  24 NW26G35   30.05R
$$

CITY           SKY/WX    TMP DP  RH WIND       PRES   REMARKS
GRAND FORKS    PTSUNNY   66  51  58 NW14G26   29.80S
GRAND FORKS AF SUNNY     66  52  61 N18G25    29.81F
DEVILS LAKE    MOSUNNY   70  45  40 NW25G36   29.84R
FARGO          MOSUNNY   67  50  54 NW25G35   29.83S
CANDO          MOCLDY    66  45  45 NW21G30   29.86S
CAVALIER       FAIR      64  52  63 NW14G20   29.80S
GRAFTON        FAIR      63  50  63 NW14      29.80R
GWINNER        PTCLDY    70  48  46 N25G32    29.90R
LANGDON        FAIR      59  54  82 NW13      29.83R
ROLLA          FAIR      66  41  39 NW20G41   29.87S
WALHALLA         N/A     66  54  63 NW14G22   29.80S
$$

CITY           SKY/WX    TMP DP  RH WIND       PRES   REMARKS
ABERDEEN       MOSUNNY   72  46  39 N25G37    29.94R
MOBRIDGE       SUNNY     74  42  31 NW15G32   29.99R
BUFFALO          N/A     74  36  25 NW23G35   30.09F
RAPID CITY     SUNNY     76  40  27 N26G37    30.16R
GLASGOW        SUNNY     73  33  23 NW21      30.15S
SIDNEY         SUNNY     72  34  25 NW21G29   30.11S
WOLF POINT     SUNNY     74  37  26 NW16G30   30.13R
MILES CITY     SUNNY     75  37  25 N22       30.19S
BAKER          SUNNY     73  35  25 NW23G35   30.16S
$$

CITY           SKY/WX    TMP DP  RH WIND       PRES   REMARKS
BILLINGS       MOSUNNY   75  39  27 NE10      30.23F
GREAT FALLS    SUNNY     73  42  32 NE8       30.22S
REGINA         MOSUNNY   68  41  37 NW26G37   30.02R
ESTEVAN        MOSUNNY   68  39  34 NW23G31   30.00S
$$



USA.gov is the U.S. government's official web portal to all federal, state and local government web resources and services.